EXS45G LCLK-EGSS

Flight info

Callsign EXS45G
Flight time N/A
Altitude 32000
Route PHA M31 GENOS DCT PEDER DCT EVENO UM601 RDS UL609 MES DCT AMISI DCT AMSIV DCT BITLA DCT BONZI DCT RETRA DCT OKLAX/N0456F340 DCT ULPIN DCT PEVAL DCT NIVAS DCT SOTOV DCT KPT DCT VEKIR DCT ADENU L608 LIRSU DCT ARCKY DCT SOGRI DCT NIK DCT KOZUF DCT IMPOH DCT SASKI L608 SUMUM Y6 TOSVA
Aircraft B738/M-SDE2E3FGHIRWXY/LB1

Departure

Time 2026-05-04 13:51
Airport Larnaca International Airport (LCLK)

Arrival

Time N/A
Airport London Stansted Airport (EGSS)
Time Latitude Longitude Altitude Speed Heading
2026-05-04 13:33 34.86948 33.61141 18 ft 0 kts 230°
2026-05-04 13:42 34.86964 33.61157 21 ft 4 kts 215°
2026-05-04 13:42 34.86985 33.61177 19 ft 4 kts 221°
2026-05-04 13:43 34.87006 33.61198 21 ft 4 kts 212°
2026-05-04 13:43 34.87025 33.61207 19 ft 3 kts 143°
2026-05-04 13:43 34.87028 33.61204 18 ft 1 kts 135°
2026-05-04 13:46 34.87023 33.61210 19 ft 4 kts 135°
2026-05-04 13:46 34.86976 33.61268 18 ft 15 kts 135°
2026-05-04 13:47 34.86888 33.61393 20 ft 17 kts 104°
2026-05-04 13:47 34.86969 33.61517 17 ft 23 kts 44°
2026-05-04 13:47 34.87102 33.61677 17 ft 30 kts 44°
2026-05-04 13:47 34.87259 33.61885 17 ft 36 kts 47°
2026-05-04 13:48 34.87447 33.62117 17 ft 41 kts 45°
2026-05-04 13:48 34.87656 33.62373 16 ft 44 kts 45°
2026-05-04 13:48 34.87873 33.62638 16 ft 34 kts 45°
2026-05-04 13:48 34.87988 33.62779 17 ft 25 kts 44°
2026-05-04 13:49 34.88126 33.62947 16 ft 31 kts 45°
2026-05-04 13:49 34.88291 33.63149 16 ft 36 kts 45°
2026-05-04 13:49 34.88442 33.63350 15 ft 20 kts 72°
2026-05-04 13:49 34.88371 33.63493 15 ft 22 kts 140°
2026-05-04 13:50 34.88271 33.63483 14 ft 3 kts 223°
2026-05-04 13:50 34.88263 33.63473 14 ft 0 kts 223°
2026-05-04 13:50 34.88170 33.63361 15 ft 52 kts 225°
2026-05-04 13:50 34.87748 33.62848 19 ft 117 kts 225°
2026-05-04 13:51 34.87040 33.61978 31 ft 169 kts 226°
2026-05-04 13:51 34.86162 33.60912 467 ft 190 kts 226°
2026-05-04 13:51 34.85162 33.59779 1106 ft 201 kts 227°
2026-05-04 13:51 34.84142 33.58562 1735 ft 207 kts 231°
2026-05-04 13:52 34.82057 33.55751 2819 ft 240 kts 231°
2026-05-04 13:52 34.80916 33.54227 3562 ft 248 kts 231°
2026-05-04 13:52 34.79734 33.52671 4394 ft 248 kts 231°
2026-05-04 13:53 34.78559 33.51142 5264 ft 249 kts 231°
2026-05-04 13:53 34.77377 33.49606 6014 ft 253 kts 231°
2026-05-04 13:53 34.76165 33.48041 6791 ft 256 kts 230°
2026-05-04 13:54 34.73699 33.44870 8333 ft 260 kts 230°
2026-05-04 13:54 34.72444 33.43260 9106 ft 264 kts 230°
2026-05-04 13:54 34.69882 33.39977 10480 ft 275 kts 231°
2026-05-04 13:55 34.68605 33.38127 10624 ft 295 kts 243°
2026-05-04 13:55 34.68000 33.33036 10985 ft 330 kts 274°
2026-05-04 13:55 34.68155 33.30190 11406 ft 341 kts 273°
2026-05-04 13:56 34.68296 33.27285 12044 ft 344 kts 273°
2026-05-04 13:56 34.68425 33.24376 12743 ft 346 kts 273°
2026-05-04 13:56 34.68664 33.18532 14012 ft 352 kts 273°
2026-05-04 13:57 34.68782 33.15543 14607 ft 355 kts 273°
2026-05-04 13:57 34.68901 33.12518 15244 ft 359 kts 273°
2026-05-04 13:58 34.69260 33.03286 16866 ft 370 kts 274°
2026-05-04 13:58 34.69500 32.97012 17921 ft 377 kts 274°
2026-05-04 13:58 34.69622 32.93811 18408 ft 380 kts 274°
2026-05-04 13:59 34.69743 32.90575 18850 ft 384 kts 274°
2026-05-04 13:59 34.69865 32.87320 19323 ft 387 kts 274°
2026-05-04 13:59 34.70107 32.80768 20207 ft 393 kts 274°
2026-05-04 14:00 34.70230 32.77432 20650 ft 396 kts 273°
2026-05-04 14:00 34.70473 32.70688 21468 ft 402 kts 273°
2026-05-04 14:00 34.70598 32.67288 21905 ft 404 kts 273°
2026-05-04 14:01 34.70723 32.63859 22317 ft 406 kts 273°
2026-05-04 14:01 34.70849 32.60417 22703 ft 409 kts 273°
2026-05-04 14:01 34.71099 32.53479 23447 ft 416 kts 273°
2026-05-04 14:02 34.71214 32.49949 23767 ft 418 kts 271°
2026-05-04 14:02 34.71151 32.46401 24109 ft 420 kts 268°
2026-05-04 14:02 34.70950 32.42857 24467 ft 421 kts 266°
2026-05-04 14:02 34.70791 32.40499 24691 ft 422 kts 266°
2026-05-04 14:03 34.70548 32.36932 25013 ft 424 kts 266°
2026-05-04 14:03 34.70247 32.32192 25438 ft 426 kts 266°
2026-05-04 14:03 34.70036 32.28582 25759 ft 427 kts 266°
2026-05-04 14:03 34.69834 32.24965 26074 ft 429 kts 267°
2026-05-04 14:04 34.69506 32.18933 26556 ft 431 kts 267°
2026-05-04 14:04 34.69308 32.15290 26847 ft 432 kts 267°
2026-05-04 14:04 34.69107 32.11635 27121 ft 433 kts 267°
2026-05-04 14:05 34.68703 32.04330 27878 ft 431 kts 266°
2026-05-04 14:05 34.68500 32.00709 28367 ft 428 kts 266°
2026-05-04 14:05 34.68297 31.97102 28804 ft 425 kts 266°
2026-05-04 14:06 34.68259 31.93558 29161 ft 425 kts 275°
2026-05-04 14:06 34.68776 31.90026 29515 ft 424 kts 284°
2026-05-04 14:06 34.69692 31.86613 29924 ft 424 kts 291°
2026-05-04 14:06 34.71046 31.83418 30210 ft 425 kts 299°
2026-05-04 14:07 34.72574 31.80383 30484 ft 425 kts 299°
2026-05-04 14:07 34.74106 31.77309 30763 ft 424 kts 298°
2026-05-04 14:07 34.75624 31.74235 31055 ft 423 kts 298°
2026-05-04 14:07 34.77134 31.71154 31305 ft 423 kts 298°
2026-05-04 14:08 34.78639 31.68066 31539 ft 424 kts 298°
2026-05-04 14:08 34.80126 31.65007 31815 ft 423 kts 298°
2026-05-04 14:08 34.81628 31.61908 31851 ft 426 kts 298°
2026-05-04 14:09 34.86130 31.52610 31879 ft 423 kts 298°
2026-05-04 14:10 34.90583 31.43390 31874 ft 421 kts 298°
2026-05-04 14:10 34.93555 31.37224 31874 ft 421 kts 298°
2026-05-04 14:11 34.96523 31.31054 31878 ft 422 kts 298°
2026-05-04 14:11 35.00976 31.21777 31874 ft 424 kts 298°
2026-05-04 14:12 35.03944 31.15580 31873 ft 426 kts 298°
2026-05-04 14:13 35.08440 31.06173 31875 ft 428 kts 299°
2026-05-04 14:13 35.11448 30.99863 31871 ft 430 kts 299°
2026-05-04 14:14 35.14440 30.93576 31871 ft 431 kts 299°
2026-05-04 14:14 35.19021 30.84089 31871 ft 431 kts 298°
2026-05-04 14:15 35.24531 30.71089 31867 ft 431 kts 297°
2026-05-04 14:16 35.28703 30.61315 31870 ft 431 kts 297°
2026-05-04 14:17 35.32880 30.51629 31867 ft 430 kts 297°
2026-05-04 14:18 35.37064 30.41909 31863 ft 428 kts 297°
2026-05-04 14:18 35.40384 30.35932 31876 ft 428 kts 310°
2026-05-04 14:19 35.44262 30.30396 31869 ft 427 kts 309°
2026-05-04 14:19 35.48091 30.24823 31864 ft 426 kts 309°
2026-05-04 14:20 35.51892 30.19237 31859 ft 425 kts 309°
2026-05-04 14:20 35.55650 30.13694 31854 ft 418 kts 309°
2026-05-04 14:21 35.61202 30.05492 31856 ft 416 kts 309°
2026-05-04 14:21 35.64908 30.00006 31861 ft 421 kts 309°
2026-05-04 14:22 35.68654 29.94455 31851 ft 419 kts 309°
2026-05-04 14:22 35.72338 29.88983 31853 ft 415 kts 309°
2026-05-04 14:23 35.76018 29.83510 32136 ft 413 kts 309°
2026-05-04 14:23 35.77849 29.80785 32434 ft 412 kts 309°
2026-05-04 14:23 35.79686 29.78048 32597 ft 414 kts 309°
2026-05-04 14:24 35.81505 29.75335 32812 ft 415 kts 309°
2026-05-04 14:24 35.83340 29.72596 33104 ft 414 kts 308°
2026-05-04 14:24 35.85177 29.69854 33449 ft 412 kts 308°
2026-05-04 14:24 35.86993 29.67140 33750 ft 410 kts 308°
2026-05-04 14:25 35.88812 29.64418 33833 ft 411 kts 308°
2026-05-04 14:25 35.94267 29.56245 33860 ft 410 kts 308°
2026-05-04 14:26 35.97913 29.50770 33876 ft 416 kts 308°
2026-05-04 14:26 36.01606 29.45215 33865 ft 417 kts 308°
2026-05-04 14:27 36.05230 29.39760 33863 ft 405 kts 308°
2026-05-04 14:27 36.08802 29.34369 33885 ft 411 kts 308°
2026-05-04 14:28 36.12466 29.28830 33890 ft 419 kts 308°
2026-05-04 14:28 36.16162 29.23236 33882 ft 418 kts 308°
2026-05-04 14:29 36.23489 29.12121 33905 ft 422 kts 309°
2026-05-04 14:30 36.27198 29.06478 33889 ft 419 kts 309°
2026-05-04 14:31 36.32705 28.98085 33919 ft 423 kts 309°
2026-05-04 14:32 36.40187 28.86648 33935 ft 431 kts 309°
2026-05-04 14:32 36.43964 28.80859 33945 ft 435 kts 309°
2026-05-04 14:33 36.47804 28.74964 33950 ft 439 kts 309°
2026-05-04 14:33 36.51634 28.69073 33945 ft 436 kts 309°
2026-05-04 14:34 36.55404 28.63266 33946 ft 432 kts 309°
2026-05-04 14:34 36.59161 28.57467 34020 ft 430 kts 309°
2026-05-04 14:34 36.61047 28.54553 34141 ft 432 kts 309°
2026-05-04 14:35 36.62932 28.51638 34291 ft 432 kts 309°
2026-05-04 14:35 36.64819 28.48717 34459 ft 433 kts 309°
2026-05-04 14:35 36.66705 28.45796 34639 ft 433 kts 309°
2026-05-04 14:35 36.68596 28.42863 34830 ft 433 kts 309°
2026-05-04 14:36 36.70481 28.39937 35028 ft 433 kts 309°
2026-05-04 14:36 36.72364 28.37013 35199 ft 433 kts 309°
2026-05-04 14:36 36.74225 28.34120 35346 ft 433 kts 309°
2026-05-04 14:36 36.76107 28.31192 35576 ft 431 kts 309°
2026-05-04 14:37 36.77985 28.28266 35775 ft 431 kts 309°
2026-05-04 14:37 36.79860 28.25343 35918 ft 431 kts 309°
2026-05-04 14:37 36.81738 28.22415 36075 ft 431 kts 309°
2026-05-04 14:37 36.83614 28.19485 36247 ft 431 kts 309°
2026-05-04 14:38 36.85466 28.16592 36408 ft 431 kts 309°
2026-05-04 14:38 36.87359 28.13629 36564 ft 431 kts 309°
2026-05-04 14:38 36.89204 28.10741 36690 ft 431 kts 309°
2026-05-04 14:38 36.91084 28.07795 36835 ft 431 kts 309°
2026-05-04 14:39 36.92957 28.04858 37007 ft 431 kts 309°
2026-05-04 14:39 36.94802 28.01963 37178 ft 430 kts 309°
2026-05-04 14:39 36.96667 27.99032 37327 ft 430 kts 309°
2026-05-04 14:40 37.00397 27.93166 37604 ft 430 kts 309°
2026-05-04 14:40 37.02259 27.90233 37772 ft 429 kts 309°
2026-05-04 14:40 37.04112 27.87311 37892 ft 428 kts 309°
2026-05-04 14:40 37.05962 27.84392 37994 ft 428 kts 309°
2026-05-04 14:41 37.09669 27.78534 38008 ft 430 kts 309°
2026-05-04 14:42 37.17116 27.66739 38024 ft 433 kts 309°
2026-05-04 14:42 37.20850 27.60807 38028 ft 433 kts 309°
2026-05-04 14:43 37.24574 27.54882 38017 ft 433 kts 309°
2026-05-04 14:43 37.28292 27.48954 38013 ft 432 kts 309°
2026-05-04 14:44 37.32011 27.43017 38020 ft 431 kts 309°
2026-05-04 14:44 37.35720 27.37082 38013 ft 430 kts 309°
2026-05-04 14:45 37.39389 27.31202 38017 ft 428 kts 309°
2026-05-04 14:45 37.43060 27.25309 38020 ft 426 kts 309°
2026-05-04 14:46 37.46715 27.19430 38026 ft 425 kts 309°
2026-05-04 14:46 37.50350 27.13574 38033 ft 424 kts 309°
2026-05-04 14:47 37.53960 27.07748 38040 ft 423 kts 309°
2026-05-04 14:47 37.57577 27.01899 38041 ft 422 kts 309°
2026-05-04 14:48 37.61175 26.96072 38050 ft 423 kts 309°
2026-05-04 14:48 37.64785 26.90216 38051 ft 423 kts 309°
2026-05-04 14:49 37.67789 26.85332 38049 ft 424 kts 309°
2026-05-04 14:49 37.71409 26.79440 38056 ft 424 kts 309°
2026-05-04 14:50 37.75029 26.73537 38059 ft 425 kts 309°
2026-05-04 14:50 37.78653 26.67617 38038 ft 426 kts 309°
2026-05-04 14:51 37.82280 26.61679 38041 ft 426 kts 309°
2026-05-04 14:51 37.85881 26.55775 38048 ft 426 kts 309°
2026-05-04 14:52 37.89512 26.49812 38048 ft 426 kts 309°
2026-05-04 14:52 37.93134 26.43851 38052 ft 426 kts 309°
2026-05-04 14:53 37.96752 26.37886 38056 ft 426 kts 308°
2026-05-04 14:53 38.00344 26.31954 38057 ft 426 kts 308°
2026-05-04 14:54 38.03951 26.25987 38067 ft 425 kts 308°
2026-05-04 14:54 38.07528 26.20057 38074 ft 425 kts 308°
2026-05-04 14:55 38.11120 26.14092 38084 ft 425 kts 308°
2026-05-04 14:55 38.14711 26.08117 38087 ft 425 kts 308°
2026-05-04 14:56 38.18274 26.02178 38088 ft 425 kts 308°
2026-05-04 14:56 38.21864 25.96184 38091 ft 425 kts 308°
2026-05-04 14:57 38.25450 25.90182 38087 ft 426 kts 308°
2026-05-04 14:57 38.28897 25.84081 38072 ft 427 kts 306°
2026-05-04 14:58 38.32303 25.77867 38078 ft 427 kts 306°
2026-05-04 14:58 38.35699 25.71685 38075 ft 428 kts 306°
2026-05-04 14:59 38.39129 25.65462 38079 ft 428 kts 307°
2026-05-04 15:00 38.44267 25.56135 38078 ft 428 kts 306°
2026-05-04 15:00 38.47680 25.49927 38093 ft 428 kts 306°
2026-05-04 15:01 38.52823 25.40550 38090 ft 428 kts 306°
2026-05-04 15:01 38.56215 25.34349 38092 ft 428 kts 306°
2026-05-04 15:02 38.59623 25.28107 38077 ft 428 kts 306°
2026-05-04 15:02 38.63026 25.21863 38091 ft 427 kts 306°
2026-05-04 15:03 38.66403 25.15653 38088 ft 427 kts 306°
2026-05-04 15:03 38.69790 25.09414 38083 ft 426 kts 306°
2026-05-04 15:04 38.73170 25.03176 38086 ft 426 kts 306°
2026-05-04 15:04 38.76542 24.96939 38086 ft 425 kts 306°
2026-05-04 15:05 38.79887 24.90741 38089 ft 425 kts 306°
2026-05-04 15:05 38.83255 24.84491 38088 ft 425 kts 306°
2026-05-04 15:06 38.86838 24.78516 38094 ft 423 kts 313°
2026-05-04 15:07 38.92799 24.70130 38091 ft 424 kts 313°
2026-05-04 15:07 38.96765 24.64514 38092 ft 424 kts 313°
2026-05-04 15:08 39.00715 24.58858 38097 ft 424 kts 313°
2026-05-04 15:08 39.04629 24.53225 38097 ft 425 kts 313°
2026-05-04 15:09 39.08572 24.47536 38095 ft 425 kts 313°
2026-05-04 15:09 39.12514 24.41839 38093 ft 426 kts 313°
2026-05-04 15:10 39.18408 24.33303 38092 ft 426 kts 313°
2026-05-04 15:11 39.24318 24.24720 38088 ft 426 kts 313°
2026-05-04 15:11 39.28263 24.18978 38093 ft 426 kts 313°
2026-05-04 15:12 39.32171 24.13279 38085 ft 426 kts 313°
2026-05-04 15:12 39.36108 24.07528 38091 ft 426 kts 313°
2026-05-04 15:13 39.40020 24.01802 38086 ft 427 kts 313°
2026-05-04 15:13 39.43950 23.96040 38089 ft 426 kts 313°
2026-05-04 15:14 39.47880 23.90266 38087 ft 426 kts 313°
2026-05-04 15:14 39.51800 23.84497 38088 ft 426 kts 313°
2026-05-04 15:15 39.55689 23.78762 38087 ft 426 kts 313°
2026-05-04 15:15 39.59605 23.72977 38090 ft 426 kts 313°
2026-05-04 15:16 39.65469 23.64295 38081 ft 426 kts 313°
2026-05-04 15:17 39.71299 23.55639 38085 ft 426 kts 313°
2026-05-04 15:17 39.77135 23.46948 38081 ft 426 kts 313°
2026-05-04 15:18 39.81029 23.41135 38082 ft 426 kts 313°
2026-05-04 15:19 39.86878 23.32384 38082 ft 427 kts 313°
2026-05-04 15:19 39.92563 23.23472 38086 ft 428 kts 307°
2026-05-04 15:20 39.95891 23.17043 38069 ft 429 kts 306°
2026-05-04 15:20 39.99183 23.10590 38078 ft 429 kts 306°
2026-05-04 15:21 40.02512 23.04125 38082 ft 428 kts 306°
2026-05-04 15:22 40.07503 22.94486 38081 ft 428 kts 306°
2026-05-04 15:22 40.12502 22.84817 38084 ft 427 kts 306°
2026-05-04 15:23 40.15826 22.78371 38083 ft 426 kts 306°
2026-05-04 15:23 40.19121 22.71968 38087 ft 426 kts 306°
2026-05-04 15:24 40.25707 22.59127 38092 ft 424 kts 306°
2026-05-04 15:25 40.28997 22.52694 38095 ft 424 kts 306°
2026-05-04 15:26 40.33917 22.43047 38095 ft 424 kts 306°
2026-05-04 15:26 40.38829 22.33388 38094 ft 424 kts 306°
2026-05-04 15:27 40.43702 22.23775 38101 ft 424 kts 306°
2026-05-04 15:28 40.48615 22.14053 38102 ft 425 kts 306°
2026-05-04 15:29 40.53514 22.04327 38107 ft 425 kts 306°
2026-05-04 15:30 40.64881 21.81643 38099 ft 424 kts 306°
2026-05-04 15:31 40.69743 21.71892 38101 ft 424 kts 306°
2026-05-04 15:32 40.77790 21.55680 38091 ft 423 kts 306°
2026-05-04 15:34 40.85272 21.40533 38104 ft 422 kts 306°
2026-05-04 15:34 40.90657 21.31439 38116 ft 417 kts 316°
2026-05-04 15:35 40.96730 21.23237 38117 ft 417 kts 316°
2026-05-04 15:36 41.02778 21.14921 38110 ft 418 kts 316°
2026-05-04 15:36 41.06815 21.09338 38113 ft 419 kts 316°
2026-05-04 15:37 41.10827 21.03779 38109 ft 419 kts 316°
2026-05-04 15:37 41.14871 20.98166 38103 ft 420 kts 316°
2026-05-04 15:38 41.18910 20.92550 38100 ft 420 kts 316°
2026-05-04 15:38 41.22917 20.86967 38109 ft 420 kts 316°
2026-05-04 15:39 41.26922 20.81377 38098 ft 420 kts 315°
2026-05-04 15:40 41.32981 20.72899 38089 ft 421 kts 315°
2026-05-04 15:40 41.37014 20.67242 38096 ft 420 kts 315°
2026-05-04 15:41 41.41038 20.61589 38092 ft 421 kts 315°
2026-05-04 15:41 41.45044 20.55947 38112 ft 421 kts 315°
2026-05-04 15:42 41.49017 20.50343 38113 ft 421 kts 315°
2026-05-04 15:42 41.53085 20.44579 38116 ft 422 kts 314°
2026-05-04 15:43 41.56948 20.38620 38104 ft 424 kts 312°
2026-05-04 15:43 41.60722 20.32599 38121 ft 424 kts 311°
2026-05-04 15:44 41.64539 20.26545 38120 ft 425 kts 311°
2026-05-04 15:44 41.68352 20.20526 38098 ft 426 kts 312°
2026-05-04 15:45 41.72191 20.14473 38110 ft 426 kts 312°
2026-05-04 15:45 41.76038 20.08395 38087 ft 426 kts 312°
2026-05-04 15:46 41.79853 20.02357 38106 ft 426 kts 312°
2026-05-04 15:46 41.83679 19.96288 38114 ft 425 kts 311°
2026-05-04 15:47 41.87467 19.90266 38094 ft 424 kts 311°
2026-05-04 15:47 41.91267 19.84212 38100 ft 423 kts 311°
2026-05-04 15:48 41.95059 19.78160 38096 ft 422 kts 311°
2026-05-04 15:48 42.00716 19.69109 38099 ft 422 kts 311°
2026-05-04 15:49 42.04458 19.63106 38087 ft 422 kts 311°
2026-05-04 15:49 42.08238 19.57029 38094 ft 421 kts 311°
2026-05-04 15:50 42.12009 19.50955 38084 ft 421 kts 311°
2026-05-04 15:50 42.15746 19.44922 38083 ft 421 kts 311°
2026-05-04 15:51 42.19504 19.38845 38074 ft 421 kts 311°
2026-05-04 15:51 42.23240 19.32738 38076 ft 421 kts 309°
2026-05-04 15:52 42.26664 19.26340 38080 ft 422 kts 307°
2026-05-04 15:52 42.30004 19.19875 38073 ft 421 kts 306°
2026-05-04 15:53 42.33370 19.13376 38074 ft 421 kts 307°
2026-05-04 15:53 42.36747 19.06887 38079 ft 421 kts 307°
2026-05-04 15:54 42.40101 19.00446 38083 ft 421 kts 307°
2026-05-04 15:54 42.43483 18.93942 38116 ft 422 kts 306°
2026-05-04 15:55 42.46863 18.87427 38136 ft 421 kts 306°
2026-05-04 15:55 42.50209 18.80963 38127 ft 422 kts 306°
2026-05-04 15:56 42.53580 18.74437 38120 ft 422 kts 306°
2026-05-04 15:56 42.56943 18.67913 38126 ft 422 kts 306°
2026-05-04 15:57 42.60292 18.61400 38128 ft 422 kts 306°
2026-05-04 15:57 42.63648 18.54859 38121 ft 421 kts 306°
2026-05-04 15:58 42.67007 18.48299 38127 ft 421 kts 306°
2026-05-04 15:58 42.70334 18.41787 38128 ft 421 kts 306°
2026-05-04 15:59 42.73658 18.35267 38113 ft 420 kts 306°
2026-05-04 15:59 42.76994 18.28708 38110 ft 419 kts 306°
2026-05-04 16:00 42.80290 18.22214 38115 ft 419 kts 306°
2026-05-04 16:00 42.83596 18.15684 38105 ft 418 kts 306°
2026-05-04 16:01 42.86895 18.09155 38111 ft 417 kts 306°
2026-05-04 16:01 42.90175 18.02653 38122 ft 417 kts 306°
2026-05-04 16:02 42.93474 17.96097 38100 ft 418 kts 306°
2026-05-04 16:03 42.98387 17.86305 38094 ft 418 kts 306°
2026-05-04 16:03 43.01672 17.79740 38112 ft 417 kts 305°
2026-05-04 16:04 43.04949 17.73176 38097 ft 417 kts 305°
2026-05-04 16:04 43.09830 17.63373 38102 ft 417 kts 305°
2026-05-04 16:05 43.13092 17.56803 38108 ft 417 kts 305°
2026-05-04 16:06 43.17965 17.46961 38104 ft 417 kts 305°
2026-05-04 16:07 43.24481 17.33751 38099 ft 417 kts 305°
2026-05-04 16:08 43.30955 17.20566 38096 ft 418 kts 305°
2026-05-04 16:09 43.39052 17.03993 38104 ft 418 kts 304°
2026-05-04 16:10 43.45527 16.90671 38104 ft 418 kts 304°
2026-05-04 16:11 43.51958 16.77380 38106 ft 417 kts 304°
2026-05-04 16:12 43.61568 16.57407 38106 ft 417 kts 304°
2026-05-04 16:13 43.67953 16.44060 38110 ft 416 kts 304°
2026-05-04 16:14 43.74323 16.30684 38112 ft 417 kts 304°
2026-05-04 16:16 43.82255 16.13940 38113 ft 417 kts 304°
2026-05-04 16:17 43.90730 15.97707 38113 ft 416 kts 311°
2026-05-04 16:18 43.98323 15.85539 38118 ft 417 kts 310°
2026-05-04 16:19 44.07723 15.70175 38111 ft 417 kts 310°
2026-05-04 16:20 44.16451 15.55812 38110 ft 417 kts 310°
2026-05-04 16:22 44.25787 15.40370 38108 ft 418 kts 310°
2026-05-04 16:23 44.37003 15.21709 38108 ft 418 kts 309°
2026-05-04 16:25 44.48180 15.02989 38117 ft 418 kts 309°
2026-05-04 16:26 44.61216 14.81011 38108 ft 420 kts 310°
2026-05-04 16:27 44.65645 14.75654 38109 ft 421 kts 322°
2026-05-04 16:28 44.72636 14.68241 38099 ft 421 kts 321°
2026-05-04 16:29 44.88902 14.50582 38097 ft 422 kts 321°
2026-05-04 16:31 45.00479 14.37908 38094 ft 423 kts 321°
2026-05-04 16:32 45.14440 14.22537 38099 ft 424 kts 320°
2026-05-04 16:33 45.23733 14.12251 38088 ft 424 kts 320°
2026-05-04 16:34 45.30726 14.04481 38092 ft 424 kts 320°
2026-05-04 16:35 45.44639 13.88949 38077 ft 424 kts 320°
2026-05-04 16:36 45.51575 13.81169 38079 ft 424 kts 320°
2026-05-04 16:37 45.58538 13.73334 38076 ft 424 kts 320°
2026-05-04 16:38 45.67768 13.62906 38077 ft 423 kts 320°
2026-05-04 16:39 45.79273 13.49846 38078 ft 422 kts 320°
2026-05-04 16:40 45.88458 13.39368 38077 ft 423 kts 320°